Weather History for Nantucket, MA

Change the Weather History Date:

Tuesday, June 25, 2013

  Actual Average Record
Temperature  
Mean Temperature 70 °F -  
Max Temperature 78 °F 68 °F 85 °F (1963)
Min Temperature 64 °F 56 °F 48 °F (1958)
Cooling Degree Days 6    
Growing Degree Days 20 (Base 50)    
Moisture  
Dew Point 63 °F    
Average Humidity 86    
Maximum Humidity 97    
Minimum Humidity 66    
Precipitation  
Precipitation 0.00 in - - ()
Sea Level Pressure  
Sea Level Pressure 29.87 in    
Wind  
Wind Speed 11 mph (SW)    
Max Wind Speed 16 mph    
Max Gust Speed -    
Visibility 6 miles    
Events Fog    
Averages and records for this station are not official NWS values.
T = Trace of Precipitation, MM = Missing Value Source: NWS Daily Summary

Daily Weather History Graph

Daily Weather History Graph

Search for Another Location

Airport:

Trip Planner

Search our weather history database for the weather conditions in past years. The results will help you decide how hot, cold, wet, or windy it might be!

Date:

Astronomy

Jun. 25, 2013 Rise Set
Actual Time 5:08 AM EDT 8:17 PM EDT
Civil Twilight 4:34 AM EDT 8:51 PM EDT
Nautical Twilight 3:51 AM EDT 9:34 PM EDT
Astronomical Twilight 2:59 AM EDT 10:25 PM EDT
Moon 9:58 PM EDT (6/25) 7:46 AM EDT (6/25)
Length of Visible Light 16h 16m
Length of Day
15h 08m
Waning Gibbous, 93% of the Moon is Illuminated
Jun 25
Waning Gibbous
Jun 30
Last Quarter
Jul 8
New
Jul 15
First Quarter
Jul 22
Full

Hourly Weather History & Observations

Time (EDT) Temp. Dew Point Humidity Pressure Visibility Wind Dir Wind Speed Gust Speed Precip Events Conditions
12:53 AM 66.0 °F 63.0 °F 90% 29.93 in 7.0 mi SW 11.5 mph - N/A   Clear
1:53 AM 64.0 °F 62.1 °F 93% 29.92 in 6.0 mi West 5.8 mph - N/A   Clear
2:53 AM 66.0 °F 62.1 °F 87% 29.92 in 9.0 mi West 9.2 mph - N/A   Clear
3:53 AM 66.9 °F 62.1 °F 84% 29.93 in 10.0 mi West 11.5 mph - N/A   Clear
4:53 AM 66.9 °F 62.1 °F 84% 29.93 in 10.0 mi West 11.5 mph - N/A   Clear
5:53 AM 70.0 °F 63.0 °F 78% 29.93 in 10.0 mi West 9.2 mph - N/A   Clear
6:53 AM 70.0 °F 63.0 °F 78% 29.92 in 10.0 mi West 10.4 mph - N/A   Clear
7:53 AM 73.0 °F 64.0 °F 73% 29.94 in 10.0 mi West 12.7 mph - N/A   Clear
8:53 AM 75.0 °F 64.0 °F 69% 29.94 in 10.0 mi West 11.5 mph - N/A   Clear
9:53 AM 72.0 °F 64.0 °F 76% 29.92 in 10.0 mi SW 11.5 mph - N/A   Partly Cloudy
10:53 AM 73.9 °F 64.9 °F 73% 29.92 in 10.0 mi WSW 12.7 mph - N/A   Clear
11:53 AM 73.9 °F 64.0 °F 71% 29.92 in 10.0 mi WSW 16.1 mph - N/A   Clear
12:53 PM 77.0 °F 64.9 °F 66% 29.91 in 10.0 mi WSW 15.0 mph - N/A   Clear
1:53 PM 72.0 °F 64.0 °F 76% 29.90 in 9.0 mi SW 15.0 mph - N/A   Clear
2:53 PM 71.1 °F 64.0 °F 78% 29.89 in 8.0 mi WSW 15.0 mph - N/A   Clear
3:53 PM 70.0 °F 64.9 °F 84% 29.87 in 8.0 mi SW 12.7 mph - N/A   Clear
4:53 PM 69.1 °F 64.0 °F 84% 29.85 in 7.0 mi SW 11.5 mph - N/A   Clear
5:53 PM 69.1 °F 64.0 °F 84% 29.83 in 7.0 mi SW 11.5 mph - N/A   Clear
6:53 PM 66.9 °F 64.0 °F 90% 29.83 in 5.0 mi WSW 12.7 mph - N/A   Clear
7:53 PM 66.0 °F 64.0 °F 93% 29.82 in 3.0 mi SW 10.4 mph - N/A   Scattered Clouds
8:21 PM 64.4 °F 62.6 °F 94% 29.82 in 3.0 mi SSW 10.4 mph - N/A   Mostly Cloudy
8:46 PM 64.4 °F 62.6 °F 94% 29.81 in 0.2 mi SW 11.5 mph - N/A Fog Fog
8:53 PM 64.0 °F 63.0 °F 96% 29.81 in 0.2 mi SSW 10.4 mph - N/A Fog Fog
8:55 PM 64.4 °F 62.6 °F 94% 29.81 in 0.2 mi SSW 10.4 mph - N/A Fog Fog
9:18 PM 64.4 °F 62.6 °F 94% 29.81 in 1.0 mi SW 9.2 mph - N/A   Mist
9:36 PM 64.4 °F 62.6 °F 94% 29.81 in 3.0 mi SW 10.4 mph - N/A   Overcast
9:44 PM 64.4 °F 62.6 °F 94% 29.81 in 1.8 mi SW 10.4 mph - N/A   Overcast
9:53 PM 64.0 °F 63.0 °F 96% 29.81 in 1.0 mi SW 12.7 mph - N/A   Mist
10:29 PM 64.4 °F 62.6 °F 94% 29.80 in 2.5 mi SW 11.5 mph - N/A   Overcast
10:36 PM 64.4 °F 62.6 °F 94% 29.80 in 3.0 mi SW 9.2 mph - N/A   Overcast
10:53 PM 64.9 °F 64.0 °F 97% 29.80 in 3.0 mi SW 9.2 mph - N/A   Overcast
11:53 PM 66.0 °F 64.0 °F 93% 29.80 in 3.0 mi SW 11.5 mph - N/A   Overcast